Regional Weather Roundup
Issued by NWS

Home | Current Version | Previous Version | Graphics & Text | Print | Product List | Glossary Off
Versions: 1 2 3 4 5 6 7 8 9 10 11 12 13 14 15 16 17 18 19 20 21 22 23 24 25 26 27 28 29 30 31 32 33 34 35 36 37 38 39 40 41 42 43 44 45 46 47 48 49 50

000
ASUS43 KTOP 312259
RWRKS

WEATHER ROUNDUP FOR KANSAS
NATIONAL WEATHER SERVICE GOODLAND KS
600 PM CDT SUN AUG 31 2014

NOTE:  "FAIR" INDICATES FEW OR NO CLOUDS BELOW 12,000 FEET WITH NO
SIGNIFICANT WEATHER AND/OR OBSTRUCTIONS TO VISIBILITY.

KSZ001>006-013>018-027>032-041>047-010000-
NORTHWEST KANSAS

CITY           SKY/WX    TMP DP  RH WIND       PRES   REMARKS
GOODLAND       CLOUDY    74  54  49 NE15      29.83F
HAYS           CLOUDY    79  64  61 SE28G44   29.65R
HILL CITY      PTSUNNY   83  59  44 N26G33    29.70F
RUSSELL        TSTM      88  64  44 SW23G30   29.60F
$$

KSZ061>065-074>080-084>089-010000-
SOUTHWEST KANSAS

CITY           SKY/WX    TMP DP  RH WIND       PRES   REMARKS
DODGE CITY     MOSUNNY   96  62  32 S28G39    29.65F HX  97
ELKHART          N/A     99  47  17 SW13        N/A  HX  95
GARDEN CITY    PTSUNNY   92  60  34 N28G36    29.65S
GREAT BEND     MOSUNNY   97  59  28 S20G33    29.61R HX  96
LIBERAL        MOSUNNY  102  45  14 SW29G38   29.69F HX  98
$$

KSZ066>073-081>083-090>101-010000-
SOUTHEAST KANSAS

CITY           SKY/WX    TMP DP  RH WIND       PRES   REMARKS
CHANUTE        SUNNY     93  64  38 S25G36    29.77F
COFFEYVILLE    SUNNY     93  67  42 S22G31    29.79F HX  96
HUTCHINSON     CLOUDY    95  61  32 S32G47    29.62F HX  95
MEDICINE LODGE   N/A     97  60  29 S26G40    29.66F HX  97
NEWTON         SUNNY     93  61  33 S32G45    29.69F
PARSONS        SUNNY     93  66  40 S16G28    29.79F HX  96
WICHITA INTL   MOSUNNY   96  61  31 S30G41    29.67F HX  96
WICHITA JABRA  SUNNY     94  62  34 S28G39    29.68F
WINFIELD       SUNNY     95  65  37 S17G28    29.73F HX  97
$$

KSZ007>012-019>026-033>040-048>060-102>105-010000-
NORTHEAST KANSAS

CITY           SKY/WX    TMP DP  RH WIND       PRES   REMARKS
CONCORDIA      TSTM      75  70  84 NW32G44   29.61R
EMPORIA        SUNNY     94  63  35 S22G36    29.69F HX  95
LAWRENCE       MOSUNNY   97  62  31 S16G30    29.71F HX  98
MANHATTAN      MOSUNNY   95  63  34 S18G28    29.63F HX  96
OLATHE IND     MOSUNNY   94  64  37 S20G30    29.74F HX  95
OLATHE EXE     MOSUNNY   90  65  43 S17G25    29.74F
SALINA         MOSUNNY   98  61  29 S20G40    29.58F HX  98
TOPEKA BILLARD SUNNY     95  65  37 S17G28    29.70F HX  97
TOPEKA FORBES  SUNNY     94  64  37 S21G30    29.70F HX  95
$$


USA.gov is the U.S. government's official web portal to all federal, state and local government web resources and services.